Back to catalog

AMC-10

GE-10

AliveCommunicationsGEO
NORAD 28154·PAYLOAD·🇱🇺 Luxembourg

Launched Feb 5, 2004 from Cape Canaveral Space Force Station

Loading…

TLE

FreshSource: Space-Track

Epoch: Sep 14, 2026, 11:42 UTC

1 28154U 04003A   26257.48773275 -.00000084  00000-0  00000-0 0  9995
2 28154   6.9092  67.9729 0004790 119.4363 260.2433  0.99119348 82469

Track AMC-10 in real time with AllMySat

Download on the App Store